Terug naar catalogus

COSMOS 1110

ActiefNavigatieLEO
NORAD 11425·PAYLOAD·🇷🇺 Russia

Gelanceerd Jun 28, 1979 vanaf Plesetsk Cosmodrome

Loading…

Volgende Passages (komende 24 uur)

TLE

VersSource: Space-Track

Epoch: Sep 14, 2026, 21:23 UTC

1 11425U 79060A   26257.89138299  .00000068  00000-0  33597-4 0  9991
2 11425  74.0118  83.9744 0013140 129.9542 230.2766 14.34260705467243

Volg COSMOS 1110 in realtime met AllMySat

Download on the App Store